Showing default

ION SCV-018, 64575

Orbit data source: Space-Track

ION SCV-018, 64575 is a payload satellite owned by D-ORBIT (IT) in SSO that was launched on Mon, 23 Jun 2025 UTC via an FALCON 9 launch vehicle from the Air Force Western Test Range (AFWTR). Payload-class satellites include a variety of spacecraft equipped with specific instruments for various scientific and technological missions. These include communications satellites like Starlink; space stations such as the ISS; scientific satellites like the Hubble; Earth observation satellites from companies like Planet Labs, Umbra, and HawkEye 360; GPS; miniature CubeSats for education and research; and military/defense satellites.

Loading next visibility...
Identifier
64575, 2025-135AZ
Orbit
SSO
Country
Flag of ITIT
Related business
Manufacturer
D-ORBIT
Mission
Operational Commercial Technology
Bus & Motor
ION-SC, PM200
Mass
220 kg wet, 150 kg dry
Launch date (UTC)
2025-06-23 (1 year ago)
Launch vehicle
FALCON 9
Launch site
Air Force Western Test Range (AFWTR)
Object type
Payload
Rocket body
Debris
Shape & HBR
Box, 0.2 m
Radar Cross Section
0.240 m², Large (>1 m²)

Expand to show TLE details & history
Last TLE update: 10 hours ago

TLE from 10 hours ago
0 ION SCV-018
1 64575U 25135AZ  26178.33018718  .00001271  00000-0  12244-3 0  9995
2 64575  97.7788 293.3198 0011158 256.9420 103.0555 14.94666347 55441
Epoch: 2026-06-27T07:55Z
TLE epoch observation values (Epoch: 2026-06-27T07:55:28.172Z)
Latitude
-0.00001°
Longitude
-100.99347°
Altitude
588.217 km
Speed
7.565 km/s
True Right ascension
19h 33m 16s
True Declination
0° 00' 00"
Sunlit
Object was in full shadow at epoch
Visualization orbit readout
Latitude
Unknown
Longitude
Unknown
Altitude
Unknown
Speed
Unknown
Apparent Right ascension
Unknown
Apparent Declination
Unknown
Sunlit
N/A
Visualization observer readout
Local Sidereal Time
05:14:10
Azimuth
Unknown
Elevation
Unknown
Doppler factor
Unknown
Orbital elements
Apogee altitude
588.189 km
Perigee altitude
572.66 km
Semi-major axis
6,958.561 km
Eccentricity
0.00112
Inclination
97.7788°
RAAN
293.3198°
Arg. of periapsis
256.942°
True anomaly
103.18002°
Mean anomaly
103.0555°
Eccentric anomaly
103.11776°
Mean motion
3.73907 °/min
Orbital period
96.28 mins
BSTAR
0.00012244
Loading maneuver chart data...
Computing Atmospheric mass density...
Loading historical data...
Loading historical data...
Loading historical data...
Loading historical data...
Loading historical data...
Loading historical data...
Loading historical data...

Documentation

Showing up to 5 results
|